Skip Page Navigation
NASA JPL Caltech
NASA Logo - Jet Propulsion Laboratory + View the NASA Portal
+ Near-Earth Object (NEO) Program
Search JPL
JPL Home Earth Solar System Stars & Galaxies Technology
JPL Solar System Dynamics
BODIES ORBITS EPHEMERIDES TOOLS PHYSICAL DATA DISCOVERY FAQ SITE MAP
JPL Small-Body Database Browser
Search: [ help ]  
(2013 BS45)
Classification: Aten [NEO]          SPK-ID: 3625129
Ephemeris | Orbit Diagram | Orbital Elements | Physical Parameters | Close-Approach Data ]

[ hide orbit diagram ]
Orbit Diagram
Note: Make sure you have Java enabled on your browser to see the applet. This applet is provided as a 3D orbit visualization tool. The applet was implemented using 2-body methods, and hence should not be used for determining accurate long-term trajectories (over several years or decades) or planetary encounter circumstances. For accurate long-term ephemerides, please instead use our Horizons system.
Orbit Viewer

Additional Notes: the orbits shown in the applet are color coded. The planets are white lines, and the asteroid/comet is a blue line. The bright white line indicates the portion of the orbit that is above the ecliptic plane, and the darker portion is below the ecliptic plane. Likewise for the asteroid/comet orbit, the light blue indicates the portion above the ecliptic plane, and the dark blue the portion below the ecliptic plane.

Orbit Viewer applet originally written and kindly provided by Osamu Ajiki (AstroArts), and further modified by Ron Baalke (JPL).


Orbital Elements at Epoch 2456400.5 (2013-Apr-18.0) TDB
Reference: JPL 25 (heliocentric ecliptic J2000)
 Element Value Uncertainty (1-sigma)   Units 
e .08407171057324456 4.772e-07  
a .9976309082342323 2.9607e-07 AU
q .9137583712582408 6.5777e-07 AU
i .7861165727793799 5.163e-06 deg
node 85.38815097569642 0.00057443 deg
peri 146.0640973026254 0.00071344 deg
M 346.0059628004277 0.00017307 deg
tp 2456414.647959042494
(2013-May-02.14795904)
0.00016869 JED
period 363.959676729571
1.00
0.00016202
4.436e-07
d
yr
n .9891205620217289 4.4031e-07 deg/d
Q 1.081503445210224 3.2096e-07 AU
  Orbit Determination Parameters
   # obs. used (total)      87  
   # delay obs. used      3  
   # Doppler obs. used      1  
   data-arc span      24 days  
   first obs. used      2013-01-20  
   last obs. used      2013-02-13  
   planetary ephem.      DE405  
   SB-pert. ephem.      SB405-CPV-2  
   condition code      2  
   fit RMS      .26547  
   data source      ORB  
   producer      OSOD/JPL  
   solution date      2013-Feb-19 15:14:04  

Additional Information
 Earth MOID = .0115061 AU 
 T_jup = 6.088 
[ show covariance matrix ]

Ephemeris | Orbit Diagram | Orbital Elements | Physical Parameters | Close-Approach Data ]

Physical Parameter Table
Parameter Symbol Value Units Sigma Reference Notes
absolute magnitude H 25.848 mag .25817 12 autocmod 2.5b

[ show close-approach data ]
Ephemeris | Orbit Diagram | Orbital Elements | Physical Parameters | Close-Approach Data ]
ABOUT SSD CREDITS/AWARDS PRIVACY/COPYRIGHT GLOSSARY LINKS
FirstGov 2013-Jun-19 20:50 UT
(server date/time)  
NASA Home Page
Site Manager:   Donald K. Yeomans
Webmaster  Alan B. Chamberlin